User: anonymous   Login
Location: Erdweis
(48.5167°N, 15.3500°E)
Time: 01:58:24
(UTC+00:00)
Language:

SL-14 R/B - Orbit

View from above orbital plane
View from above orbital plane
View from above satellite
View from above satellite

Ground track
Ground track

The orbit data is extracted from the following two-line orbital elements,

1 33505U 09003B   20334.55039707 +.00001024 +00000-0 +60760-4 0  9996
2 33505 082.3876 067.8414 0027301 166.9870 193.2070 15.09940398651127
Epoch (UTC): 29 November 2020 13:12:34
Eccentricity: 0.0027301
inclination: 82.3876°
perigee height: 517 km
apogee height: 555 km
right ascension of ascending node: 67.8414°
argument of perigee: 166.9870°
revolutions per day: 15.09940398
mean anomaly at epoch: 193.2070°
orbit number at epoch: 65112

The dashed part of the orbit path shows where the satellite is in the earth's shadow,  

DLR